[[{"header":{"parameterUnit":"m.s-1","parameterCategory":1,"la1":30.2991,"la2":30.254,"lo1":-89.0895,"lo2":-89.0444,"dy":0.0017,"dx":0.0017,"nx":28,"ny":28,"refTime":"2024-04-16T03:00:00:Z","depth":0,"parameterNumber":2,"parameterNumberName":"U-component_of_WINDS"},"data":[0,0,0,0,0,0,0,0,0,0,0,0,0,0,0,0,0,0,0,0,0,0,0,0,0,0,0,0,0,0,0,0,0,0,0,0,0,0,0,0,0,0,0,0,0,0,0,0,0,0,0,0,0,0,0,0,0,0,-2.2144,-2.2144,0,-2.2114,-2.2113,-2.2113,-2.2071,-2.2071,-2.207,-2.2069,-2.2036,-2.2036,-2.2036,0,0,0,0,0,0,0,0,0,0,0,0,0,-2.2167,-2.2167,-2.2144,-2.2144,-2.2144,-2.2114,-2.2113,-2.2113,-2.2071,-2.2071,-2.207,-2.2069,-2.2036,-2.2036,-2.2036,0,0,0,0,0,0,0,0,0,0,0,0,0,-2.2149,-2.2166,-2.2145,-2.2119,-2.2117,-2.2114,-2.2113,-2.2113,-2.2072,-2.2071,-2.207,-2.2069,-2.2036,-2.2036,-2.2036,-2.2054,0,0,-2.2034,-2.2034,0,0,0,0,0,0,0,0,-2.215,-2.2148,-2.2124,-2.2121,-2.2118,-2.2095,-2.2109,-2.2093,-2.2072,-2.2089,-2.2069,-2.2068,-2.2057,-2.2054,-2.2051,-2.2052,-2.2051,-2.2034,-2.2034,-2.2034,-2.2034,0,0,0,0,0,0,0,-2.2151,-2.2149,-2.2132,-2.2123,-2.212,-2.2109,-2.2106,-2.2106,-2.2079,-2.2087,-2.2084,-2.2081,-2.2055,-2.2051,-2.205,-2.205,-2.2034,-2.2034,-2.2034,-2.2034,-2.2066,-2.2067,0,0,0,0,0,0,-2.2156,-2.215,-2.2133,-2.2131,-2.2132,-2.211,-2.2106,-2.2104,-2.2079,-2.2074,-2.2082,-2.2079,-2.2052,-2.205,-2.2048,-2.2068,-2.2034,-2.2034,-2.2033,-2.2064,-2.2066,-2.2067,0,0,0,0,0,0,-2.2157,-2.2155,-2.2134,-2.214,-2.2136,-2.2111,-2.2109,-2.2104,-2.21,-2.2075,-2.207,-2.2083,-2.2052,-2.2049,-2.2053,-2.2066,-2.2034,-2.2033,-2.2063,-2.2065,-2.2066,-2.2107,0,0,0,0,0,0,-2.2158,-2.2155,-2.2162,-2.214,-2.2136,-2.214,-2.2109,-2.2104,-2.21,-2.2096,-2.2075,-2.207,-2.2051,-2.2054,-2.2053,-2.2065,-2.2033,-2.2062,-2.2064,-2.2066,-2.2105,-2.211,-2.2115,0,0,0,0,0,-2.2159,-2.2175,-2.2163,-2.2161,-2.2144,-2.2141,-2.2138,-2.2116,-2.2101,-2.2107,-2.2091,-2.2071,-2.2065,-2.2055,-2.2053,-2.2065,-2.2061,-2.2063,-2.2066,-2.2102,-2.2109,-2.2115,0,0,0,0,0,0,-2.2198,-2.2171,-2.2158,-2.2168,-2.2157,-2.2134,-2.2141,-2.2124,-2.2116,-2.2113,-2.2085,-2.2081,-2.2088,-2.2077,-2.2066,-2.2082,-2.206,-2.2062,-2.2089,-2.2095,-2.21,-2.2102,-2.2033,0,0,0,0,0,-2.2208,-2.2208,-2.2184,-2.2195,-2.2191,-2.2167,-2.2165,-2.2148,-2.2136,-2.2131,-2.2115,-2.2103,-2.2099,-2.2096,-2.2091,-2.2104,-2.2098,-2.2111,-2.2117,-2.2121,-2.2123,-2.2128,-2.2134,-2.2075,-2.2075,-2.2075,0,0,-2.2229,-2.2214,-2.2215,-2.2203,-2.2193,-2.2192,-2.2163,-2.2164,-2.2164,-2.2131,-2.2133,-2.2122,-2.2107,-2.2115,-2.2118,-2.2106,-2.2138,-2.2124,-2.2128,-2.2127,-2.2131,-2.2137,-2.2142,-2.2076,-2.2076,-2.2076,0,0,-2.2266,-2.2255,-2.2263,-2.2253,-2.2238,-2.2223,-2.2225,-2.2204,-2.2195,-2.2198,-2.2173,-2.2172,-2.2165,-2.2156,-2.215,-2.2184,-2.2165,-2.2183,-2.2209,-2.2215,-2.222,-2.2224,-2.2236,-2.224,-2.2186,-2.2186,-2.2186,0,-2.2293,-2.2292,-2.2269,-2.2271,-2.2267,-2.2238,-2.2245,-2.2237,-2.2221,-2.2218,-2.2206,-2.2196,-2.2184,-2.219,-2.2199,-2.2195,-2.2196,-2.2185,-2.2221,-2.2225,-2.2228,-2.2239,-2.2244,-2.2188,-2.2188,-2.2187,-2.2187,0,-2.2326,-2.2326,-2.2334,-2.2319,-2.2316,-2.2321,-2.2298,-2.2297,-2.2282,-2.2267,-2.227,-2.2255,-2.2246,-2.2246,-2.2231,-2.225,-2.2243,-2.2226,-2.2203,-2.2237,-2.2246,-2.225,-2.2191,-2.219,-2.219,-2.2189,0,0,-2.2386,-2.2359,-2.2363,-2.2356,-2.2338,-2.2337,-2.2341,-2.2333,-2.2332,-2.2322,-2.2324,-2.232,-2.2304,-2.2298,-2.2281,-2.2287,-2.2314,-2.2269,-2.2268,-2.2277,-2.2334,-2.2346,-2.2351,-2.2302,-2.2303,-2.2303,-2.2335,0,-2.2418,-2.2424,-2.2404,-2.2414,-2.2413,-2.2386,-2.239,-2.2379,-2.2366,-2.2363,-2.2349,-2.2345,-2.2326,-2.2322,-2.2326,-2.231,-2.2325,-2.2308,-2.2303,-2.2303,-2.2306,-2.2356,-2.2368,-2.2399,-2.2338,-2.2339,-2.2339,0,-2.2457,-2.245,-2.2461,-2.2442,-2.2441,-2.2445,-2.2435,-2.2433,-2.2421,-2.2411,-2.2404,-2.2385,-2.2387,-2.2367,-2.2369,-2.2358,-2.2355,-2.2347,-2.2348,-2.2345,-2.2322,-2.2354,-2.2408,-2.2412,-2.2345,-2.2345,-2.2344,0,-2.2499,-2.2492,-2.2497,-2.2493,-2.2471,-2.2474,-2.2466,-2.2452,-2.2448,-2.244,-2.2438,-2.243,-2.2426,-2.242,-2.24,-2.2387,-2.2404,-2.2382,-2.2396,-2.2396,-2.2399,-2.2399,-2.2453,-2.24,-2.2399,-2.2399,-2.2399,0,-2.2537,-2.2545,-2.2516,-2.2519,-2.2527,-2.2503,-2.2511,-2.25,-2.2488,-2.2488,-2.2465,-2.2465,-2.2439,-2.2436,-2.2421,-2.2425,-2.2423,-2.2415,-2.241,-2.2416,-2.2417,-2.2413,-2.241,-2.2401,-2.24,-2.24,-2.24,0,-2.2585,-2.2566,-2.257,-2.255,-2.2545,-2.2551,-2.2534,-2.2536,-2.2522,-2.2523,-2.2521,-2.2499,-2.2495,-2.2475,-2.2466,-2.2455,-2.2464,-2.2456,-2.2469,-2.2466,-2.248,-2.2479,-2.2532,-2.2537,-2.2482,-2.2482,-2.2483,0,-2.261,-2.2615,-2.2596,-2.2595,-2.2587,-2.2585,-2.2582,-2.2559,-2.2556,-2.2543,-2.2546,-2.2541,-2.2535,-2.253,-2.2512,-2.2505,-2.2496,-2.2515,-2.2495,-2.2501,-2.2495,-2.2495,-2.2495,-2.2519,-2.252,-2.2521,-2.2521,0,-2.2657,-2.2647,-2.2643,-2.2636,-2.2633,-2.2626,-2.2618,-2.2618,-2.2593,-2.2591,-2.2587,-2.2583,-2.2574,-2.2568,-2.2559,-2.2549,-2.2531,-2.2528,-2.253,-2.2536,-2.2543,-2.2539,-2.248,-2.2526,-2.2526,-2.2525,-2.2525,-2.2525,-2.2693,-2.2696,-2.2683,-2.268,-2.2671,-2.2664,-2.2665,-2.2652,-2.2648,-2.2639,-2.2626,-2.2624,-2.2611,-2.2596,-2.2589,-2.2586,-2.2576,-2.258,-2.2581,-2.2582,-2.2585,-2.2545,-2.2584,-2.2584,-2.2584,-2.2584,-2.2584,0,-2.2738,-2.2728,-2.2725,-2.2715,-2.2712,-2.2696,-2.2686,-2.2685,-2.2683,-2.2673,-2.2668,-2.2663,-2.2658,-2.2641,-2.2633,-2.2635,-2.2626,-2.2634,-2.2633,-2.2631,-2.2595,-2.2593,-2.2641,-2.2641,-2.2641,-2.2641,-2.2641,-2.2641,-2.2761,-2.2765,-2.2754,-2.2755,-2.2745,-2.2743,-2.2738,-2.2732,-2.2723,-2.272,-2.2715,-2.2704,-2.2691,-2.2683,-2.2677,-2.2672,-2.267,-2.268,-2.2673,-2.2639,-2.2633,-2.2628,-2.2626,-2.268,-2.268,-2.2709,-2.2709,-2.2709]},{"header":{"parameterUnit":"m.s-1","parameterCategory":1,"la1":30.2991,"la2":30.254,"lo1":-89.0895,"lo2":-89.0444,"dy":0.0017,"dx":0.0017,"nx":28,"ny":28,"refTime":"2024-04-16T03:00:00:Z","depth":0,"parameterNumber":3,"parameterNumberName":"V-component_of_WINDS"},"data":[0,0,0,0,0,0,0,0,0,0,0,0,0,0,0,0,0,0,0,0,0,0,0,0,0,0,0,0,0,0,0,0,0,0,0,0,0,0,0,0,0,0,0,0,0,0,0,0,0,0,0,0,0,0,0,0,0,0,4.0683,4.0682,0,4.0631,4.0631,4.063,4.0597,4.0597,4.0596,4.0596,4.0538,4.0536,4.0535,0,0,0,0,0,0,0,0,0,0,0,0,0,4.0748,4.0747,4.0683,4.0682,4.0681,4.0631,4.063,4.063,4.0597,4.0597,4.0596,4.0596,4.0538,4.0537,4.0535,0,0,0,0,0,0,0,0,0,0,0,0,0,4.071,4.0747,4.0683,4.0659,4.0656,4.0631,4.063,4.063,4.0597,4.0597,4.0596,4.0596,4.0539,4.0537,4.0535,4.0527,0,0,4.0528,4.0527,0,0,0,0,0,0,0,0,4.0713,4.0708,4.0663,4.0661,4.0658,4.062,4.0632,4.0595,4.0597,4.0619,4.0596,4.0596,4.0565,4.0561,4.0551,4.0525,4.0522,4.0528,4.0527,4.0526,4.0525,0,0,0,0,0,0,0,4.0715,4.071,4.0662,4.0663,4.0659,4.0649,4.0644,4.0625,4.0594,4.0617,4.0615,4.0609,4.0563,4.0554,4.055,4.0521,4.0528,4.0526,4.0525,4.0524,4.0487,4.0487,0,0,0,0,0,0,4.0722,4.0712,4.0664,4.0661,4.0685,4.0649,4.0642,4.0632,4.0594,4.0588,4.061,4.0608,4.0557,4.0552,4.0548,4.0537,4.0526,4.0524,4.0523,4.0486,4.0487,4.0487,0,0,0,0,0,0,4.0724,4.0718,4.0666,4.0686,4.0678,4.0648,4.0637,4.0632,4.0622,4.0589,4.0582,4.0606,4.0557,4.0551,4.0533,4.0535,4.0523,4.0521,4.0486,4.0486,4.0487,4.0517,0,0,0,0,0,0,4.0726,4.0719,4.0717,4.0686,4.0678,4.0654,4.0637,4.0631,4.0619,4.0616,4.0583,4.0577,4.0556,4.0537,4.0531,4.0532,4.052,4.0486,4.0486,4.0487,4.0515,4.0518,4.052,0,0,0,0,0,4.0728,4.0726,4.0717,4.0711,4.0675,4.0654,4.0649,4.0626,4.0619,4.0616,4.0595,4.0578,4.0536,4.0535,4.0529,4.0529,4.0486,4.0486,4.0487,4.0514,4.0518,4.052,0,0,0,0,0,0,4.0756,4.0721,4.0711,4.0699,4.068,4.0649,4.0644,4.063,4.0611,4.0609,4.058,4.0573,4.0558,4.0541,4.0542,4.052,4.0509,4.0508,4.0532,4.0535,4.0537,4.0541,4.0518,0,0,0,0,0,4.0761,4.0748,4.0718,4.0711,4.0702,4.0675,4.0665,4.0649,4.0627,4.0619,4.0596,4.0574,4.0556,4.0544,4.0525,4.0513,4.0505,4.051,4.0512,4.0514,4.0514,4.0507,4.0509,4.0489,4.0489,4.0489,0,0,4.077,4.075,4.0744,4.0716,4.0699,4.0686,4.0668,4.0654,4.0644,4.0616,4.0599,4.0582,4.0555,4.0541,4.0533,4.0526,4.0518,4.0515,4.0517,4.0515,4.0508,4.051,4.0511,4.0489,4.0489,4.0489,0,0,4.0781,4.0765,4.0757,4.0741,4.0717,4.0699,4.0697,4.0668,4.0657,4.064,4.0619,4.0605,4.0574,4.0556,4.0543,4.0548,4.0532,4.0543,4.0555,4.0549,4.055,4.0552,4.0554,4.0555,4.0543,4.0543,4.0543,0,4.0795,4.0776,4.0754,4.0743,4.0731,4.0707,4.0698,4.0683,4.0654,4.0645,4.0639,4.06,4.058,4.0562,4.0564,4.0554,4.055,4.0546,4.0552,4.0553,4.0554,4.0556,4.0557,4.0544,4.0544,4.0544,4.0544,0,4.0795,4.0782,4.0779,4.0753,4.0741,4.0731,4.0706,4.0696,4.0682,4.0664,4.0647,4.0623,4.06,4.0594,4.0578,4.0573,4.057,4.0558,4.0546,4.0558,4.0559,4.056,4.0546,4.0546,4.0545,4.0545,0,0,4.0821,4.0785,4.0784,4.0773,4.0745,4.0733,4.0722,4.0701,4.0693,4.0673,4.0663,4.0638,4.0627,4.0613,4.0595,4.0589,4.0596,4.0578,4.0577,4.0583,4.0589,4.0599,4.06,4.0585,4.0585,4.0585,4.0592,0,4.0828,4.0809,4.0789,4.0776,4.0764,4.0741,4.0731,4.0712,4.0696,4.0682,4.0663,4.0646,4.0633,4.0625,4.0618,4.0597,4.0597,4.0596,4.0574,4.0574,4.0582,4.0601,4.061,4.0617,4.0592,4.0592,4.0592,0,4.0833,4.0818,4.0804,4.0779,4.0773,4.0764,4.0744,4.0731,4.0709,4.0698,4.0682,4.0665,4.065,4.064,4.062,4.062,4.0609,4.0598,4.0598,4.0595,4.0584,4.0599,4.0619,4.062,4.0593,4.0593,4.0593,0,4.0855,4.0829,4.0818,4.0809,4.0779,4.0774,4.076,4.0738,4.0727,4.0709,4.0702,4.0681,4.067,4.0654,4.063,4.0625,4.0613,4.06,4.0602,4.0603,4.0601,4.0601,4.062,4.0594,4.0594,4.0594,4.0594,0,4.0865,4.0857,4.0828,4.0821,4.0812,4.0789,4.078,4.0765,4.0745,4.0734,4.0713,4.0702,4.0672,4.0658,4.064,4.0626,4.0621,4.061,4.0606,4.0613,4.0614,4.0606,4.0605,4.0594,4.0594,4.0594,4.0594,0,4.0887,4.0867,4.0853,4.0827,4.082,4.0814,4.0791,4.0783,4.0766,4.0752,4.0747,4.072,4.0702,4.0678,4.0652,4.0639,4.0628,4.062,4.0637,4.0634,4.0638,4.0638,4.0652,4.0653,4.0626,4.0626,4.0626,0,4.0895,4.0889,4.0863,4.0855,4.0843,4.083,4.082,4.0796,4.0786,4.0761,4.0756,4.0738,4.0721,4.0694,4.0671,4.0651,4.0643,4.0649,4.0639,4.0647,4.0643,4.0644,4.0644,4.0651,4.0652,4.0652,4.0652,0,4.0911,4.0902,4.0889,4.0872,4.0861,4.0846,4.083,4.0825,4.0798,4.0787,4.077,4.0758,4.0733,4.0714,4.0691,4.0676,4.066,4.0656,4.0655,4.0662,4.0673,4.0668,4.0644,4.0655,4.0655,4.0655,4.0655,4.0655,4.0927,4.0921,4.0902,4.0888,4.0874,4.086,4.0852,4.0835,4.0821,4.0801,4.0787,4.0771,4.0749,4.0717,4.0703,4.0689,4.0682,4.0681,4.0681,4.0681,4.0684,4.0675,4.0685,4.0684,4.0684,4.0684,4.0684,0,4.0943,4.093,4.0918,4.0897,4.0886,4.0874,4.0856,4.0847,4.0834,4.0816,4.0801,4.0782,4.0764,4.074,4.0721,4.0714,4.0706,4.071,4.071,4.0707,4.0691,4.0694,4.0717,4.0717,4.0717,4.0717,4.0717,4.0717,4.095,4.094,4.0929,4.0912,4.0898,4.0884,4.0875,4.0862,4.0848,4.0828,4.0814,4.0799,4.0779,4.0758,4.0741,4.0734,4.0728,4.0734,4.0725,4.0711,4.0708,4.0705,4.0707,4.0733,4.0733,4.0742,4.0742,4.0742]}]]